Powrót do katalogu

STARLINK-35642

AktywnyŁącznośćVLEO
NORAD 66398·PAYLOAD·🇺🇸 United States

Wystrzelony Nov 8, 2025 z Cape Canaveral Space Force Station

Loading…

Następne Przeloty (najbliższe 24 godziny)

TLE

ŚwieżeSource: CelesTrak SupGP

Epoka: Sep 15, 2026, 03:52 UTC

1 66398C 25257U   26258.16159722 -.00003527  00000+0 -10431-3 0  2587
2 66398  53.1582  53.0258 0001475  92.5123  55.8920 15.34359623    11

Śledź STARLINK-35642 w czasie rzeczywistym z AllMySat

Download on the App Store